Year,Month,Day,Hour,Minute,Value (Times are PST for temperature in C)
2015,05,30,00,00,13.00
2015,05,30,00,01,13.00
2015,05,30,00,02,13.00
2015,05,30,00,03,13.00
2015,05,30,00,04,13.00
2015,05,30,00,05,13.00
2015,05,30,00,06,13.00
2015,05,30,00,07,13.00
2015,05,30,00,08,13.00
2015,05,30,00,09,12.90
2015,05,30,00,10,12.90
2015,05,30,00,11,13.00
2015,05,30,00,12,13.00
2015,05,30,00,13,13.00
2015,05,30,00,14,13.00
2015,05,30,00,15,13.00
2015,05,30,00,16,12.90
2015,05,30,00,17,12.90
2015,05,30,00,18,12.90
2015,05,30,00,19,12.90
2015,05,30,00,20,12.80
2015,05,30,00,21,12.80
2015,05,30,00,22,12.80
2015,05,30,00,23,12.70
2015,05,30,00,24,12.70
2015,05,30,00,25,12.70
2015,05,30,00,26,12.60
2015,05,30,00,27,12.60
2015,05,30,00,28,12.60
2015,05,30,00,29,12.50
2015,05,30,00,30,12.40
2015,05,30,00,31,12.40
2015,05,30,00,32,12.30
2015,05,30,00,33,12.30
2015,05,30,00,34,12.30
2015,05,30,00,35,12.20
2015,05,30,00,36,12.20
2015,05,30,00,37,12.10
2015,05,30,00,38,12.10
2015,05,30,00,39,12.00
2015,05,30,00,40,12.00
2015,05,30,00,41,11.90
2015,05,30,00,42,11.90
2015,05,30,00,43,11.80
2015,05,30,00,44,11.80
2015,05,30,00,45,11.80
2015,05,30,00,46,11.80
2015,05,30,00,47,11.70
2015,05,30,00,48,11.70
2015,05,30,00,49,11.70
2015,05,30,00,50,11.70
2015,05,30,00,51,11.60
2015,05,30,00,52,11.60
2015,05,30,00,53,11.60
2015,05,30,00,54,11.60
2015,05,30,00,55,11.50
2015,05,30,00,56,11.50
2015,05,30,00,57,11.50
2015,05,30,00,58,11.50
2015,05,30,00,59,11.40
2015,05,30,01,00,11.40
2015,05,30,01,01,11.40
2015,05,30,01,02,11.40
2015,05,30,01,03,11.40
2015,05,30,01,04,11.30
2015,05,30,01,05,11.30
2015,05,30,01,06,11.30
2015,05,30,01,07,11.30
2015,05,30,01,08,11.30
2015,05,30,01,09,11.30
2015,05,30,01,10,11.20
2015,05,30,01,11,11.20
2015,05,30,01,12,11.20
2015,05,30,01,13,11.20
2015,05,30,01,14,11.20
2015,05,30,01,15,11.20
2015,05,30,01,16,11.20
2015,05,30,01,17,11.20
2015,05,30,01,18,11.20
2015,05,30,01,19,11.10
2015,05,30,01,20,11.10
2015,05,30,01,21,11.10
2015,05,30,01,22,11.10
2015,05,30,01,23,11.10
2015,05,30,01,24,11.10
2015,05,30,01,25,11.10
2015,05,30,01,26,11.10
2015,05,30,01,27,11.00
2015,05,30,01,28,11.00
2015,05,30,01,29,11.00
2015,05,30,01,30,11.00
2015,05,30,01,31,10.90
2015,05,30,01,32,10.90
2015,05,30,01,33,10.90
2015,05,30,01,34,10.90
2015,05,30,01,35,10.80
2015,05,30,01,36,10.80
2015,05,30,01,37,10.80
2015,05,30,01,38,10.80
2015,05,30,01,39,10.80
2015,05,30,01,40,10.70
2015,05,30,01,41,10.70
2015,05,30,01,42,10.70
2015,05,30,01,43,10.70
2015,05,30,01,44,10.70
2015,05,30,01,45,10.70
2015,05,30,01,46,10.60
2015,05,30,01,47,10.60
2015,05,30,01,48,10.60
2015,05,30,01,49,10.60
2015,05,30,01,50,10.60
2015,05,30,01,51,10.60
2015,05,30,01,52,10.50
2015,05,30,01,53,10.50
2015,05,30,01,54,10.50
2015,05,30,01,55,10.50
2015,05,30,01,56,10.50
2015,05,30,01,57,10.40
2015,05,30,01,58,10.40
2015,05,30,01,59,10.40
2015,05,30,02,00,10.40
2015,05,30,02,01,10.40
2015,05,30,02,02,10.40
2015,05,30,02,03,10.30
2015,05,30,02,04,10.30
2015,05,30,02,05,10.30
2015,05,30,02,06,10.30
2015,05,30,02,07,10.30
2015,05,30,02,08,10.30
2015,05,30,02,09,10.30
2015,05,30,02,10,10.20
2015,05,30,02,11,10.20
2015,05,30,02,12,10.20
2015,05,30,02,13,10.20
2015,05,30,02,14,10.20
2015,05,30,02,15,10.20
2015,05,30,02,16,10.20
2015,05,30,02,17,10.10
2015,05,30,02,18,10.10
2015,05,30,02,19,10.10
2015,05,30,02,20,10.10
2015,05,30,02,21,10.10
2015,05,30,02,22,10.10
2015,05,30,02,23,10.10
2015,05,30,02,24,10.10
2015,05,30,02,25,10.00
2015,05,30,02,26,10.00
2015,05,30,02,27,10.00
2015,05,30,02,28,10.00
2015,05,30,02,29,9.90
2015,05,30,02,30,9.90
2015,05,30,02,31,9.90
2015,05,30,02,32,9.90
2015,05,30,02,33,9.90
2015,05,30,02,34,9.90
2015,05,30,02,35,9.90
2015,05,30,02,36,9.90
2015,05,30,02,37,9.80
2015,05,30,02,38,9.80
2015,05,30,02,39,9.80
2015,05,30,02,40,9.80
2015,05,30,02,41,9.80
2015,05,30,02,42,9.70
2015,05,30,02,43,9.70
2015,05,30,02,44,9.70
2015,05,30,02,45,9.70
2015,05,30,02,46,9.70
2015,05,30,02,47,9.70
2015,05,30,02,48,9.70
2015,05,30,02,49,9.60
2015,05,30,02,50,9.60
2015,05,30,02,51,9.60
2015,05,30,02,52,9.60
2015,05,30,02,53,9.60
2015,05,30,02,54,9.50
2015,05,30,02,55,9.50
2015,05,30,02,56,9.50
2015,05,30,02,57,9.50
2015,05,30,02,58,9.50
2015,05,30,02,59,9.50
2015,05,30,03,00,9.50
2015,05,30,03,01,9.40
2015,05,30,03,02,9.40
2015,05,30,03,03,9.40
2015,05,30,03,04,9.40
2015,05,30,03,05,9.40
2015,05,30,03,06,9.40
2015,05,30,03,07,9.40
2015,05,30,03,08,9.40
2015,05,30,03,09,9.30
2015,05,30,03,10,9.30
2015,05,30,03,11,9.30
2015,05,30,03,12,9.30
2015,05,30,03,13,9.30
2015,05,30,03,14,9.30
2015,05,30,03,15,9.30
2015,05,30,03,16,9.30
2015,05,30,03,17,9.20
2015,05,30,03,18,9.20
2015,05,30,03,19,9.20
2015,05,30,03,20,9.20
2015,05,30,03,21,9.20
2015,05,30,03,22,9.20
2015,05,30,03,23,9.20
2015,05,30,03,24,9.20
2015,05,30,03,25,9.20
2015,05,30,03,26,9.10
2015,05,30,03,27,9.10
2015,05,30,03,28,9.10
2015,05,30,03,29,9.10
2015,05,30,03,30,9.10
2015,05,30,03,31,9.10
2015,05,30,03,32,9.10
2015,05,30,03,33,9.10
2015,05,30,03,34,9.10
2015,05,30,03,35,9.00
2015,05,30,03,36,9.00
2015,05,30,03,37,9.00
2015,05,30,03,38,9.00
2015,05,30,03,39,8.90
2015,05,30,03,40,8.90
2015,05,30,03,41,8.90
2015,05,30,03,42,8.90
2015,05,30,03,43,8.90
2015,05,30,03,44,8.90
2015,05,30,03,45,8.80
2015,05,30,03,46,8.80
2015,05,30,03,47,8.80
2015,05,30,03,48,8.80
2015,05,30,03,49,8.80
2015,05,30,03,50,8.80
2015,05,30,03,51,8.80
2015,05,30,03,52,8.80
2015,05,30,03,53,8.70
2015,05,30,03,54,8.70
2015,05,30,03,55,8.70
2015,05,30,03,56,8.70
2015,05,30,03,57,8.70
2015,05,30,03,58,8.70
2015,05,30,03,59,8.70
2015,05,30,04,00,8.70
2015,05,30,04,01,8.70
2015,05,30,04,02,8.70
2015,05,30,04,03,8.70
2015,05,30,04,04,8.70
2015,05,30,04,05,8.70
2015,05,30,04,06,8.70
2015,05,30,04,07,8.70
2015,05,30,04,08,8.70
2015,05,30,04,09,8.70
2015,05,30,04,10,8.70
2015,05,30,04,11,8.70
2015,05,30,04,12,8.70
2015,05,30,04,13,8.60
2015,05,30,04,14,8.60
2015,05,30,04,15,8.60
2015,05,30,04,16,8.50
2015,05,30,04,17,8.50
2015,05,30,04,18,8.50
2015,05,30,04,19,8.50
2015,05,30,04,20,8.50
2015,05,30,04,21,8.40
2015,05,30,04,22,8.40
2015,05,30,04,23,8.40
2015,05,30,04,24,8.40
2015,05,30,04,25,8.40
2015,05,30,04,26,8.40
2015,05,30,04,27,8.40
2015,05,30,04,28,8.40
2015,05,30,04,29,8.40
2015,05,30,04,30,8.40
2015,05,30,04,31,8.40
2015,05,30,04,32,8.40
2015,05,30,04,33,8.40
2015,05,30,04,34,8.30
2015,05,30,04,35,8.30
2015,05,30,04,36,8.30
2015,05,30,04,37,8.30
2015,05,30,04,38,8.30
2015,05,30,04,39,8.30
2015,05,30,04,40,8.30
2015,05,30,04,41,8.30
2015,05,30,04,42,8.20
2015,05,30,04,43,8.20
2015,05,30,04,44,8.20
2015,05,30,04,45,8.20
2015,05,30,04,46,8.20
2015,05,30,04,47,8.20
2015,05,30,04,48,8.20
2015,05,30,04,49,8.20
2015,05,30,04,50,8.20
2015,05,30,04,51,8.20
2015,05,30,04,52,8.20
2015,05,30,04,53,8.20
2015,05,30,04,54,8.20
2015,05,30,04,55,8.20
2015,05,30,04,56,8.20
2015,05,30,04,57,8.20
2015,05,30,04,58,8.20
2015,05,30,04,59,8.30
2015,05,30,05,00,8.30
2015,05,30,05,01,8.30
2015,05,30,05,02,8.40
2015,05,30,05,03,8.40
2015,05,30,05,04,8.40
2015,05,30,05,05,8.40
2015,05,30,05,06,8.50
2015,05,30,05,07,8.50
2015,05,30,05,08,8.50
2015,05,30,05,09,8.50
2015,05,30,05,10,8.50
2015,05,30,05,11,8.50
2015,05,30,05,12,8.50
2015,05,30,05,13,8.40
2015,05,30,05,14,8.40
2015,05,30,05,15,8.40
2015,05,30,05,16,8.40
2015,05,30,05,17,8.40
2015,05,30,05,18,8.40
2015,05,30,05,19,8.40
2015,05,30,05,20,8.40
2015,05,30,05,21,8.40
2015,05,30,05,22,8.40
2015,05,30,05,23,8.40
2015,05,30,05,24,8.40
2015,05,30,05,25,8.40
2015,05,30,05,26,8.30
2015,05,30,05,27,8.30
2015,05,30,05,28,8.30
2015,05,30,05,29,8.30
2015,05,30,05,30,8.30
2015,05,30,05,31,8.30
2015,05,30,05,32,8.30
2015,05,30,05,33,8.30
2015,05,30,05,34,8.20
2015,05,30,05,35,8.20
2015,05,30,05,36,8.20
2015,05,30,05,37,8.20
2015,05,30,05,38,8.20
2015,05,30,05,39,8.20
2015,05,30,05,40,8.20
2015,05,30,05,41,8.10
2015,05,30,05,42,8.10
2015,05,30,05,43,8.10
2015,05,30,05,44,8.10
2015,05,30,05,45,8.10
2015,05,30,05,46,8.10
2015,05,30,05,47,8.10
2015,05,30,05,48,8.00
2015,05,30,05,49,8.00
2015,05,30,05,50,8.00
2015,05,30,05,51,8.00
2015,05,30,05,52,7.90
2015,05,30,05,53,7.90
2015,05,30,05,54,7.90
2015,05,30,05,55,7.90
2015,05,30,05,56,7.90
2015,05,30,05,57,7.90
2015,05,30,05,58,7.90
2015,05,30,05,59,7.90
2015,05,30,06,00,7.90
2015,05,30,06,01,7.90
2015,05,30,06,02,7.90
2015,05,30,06,03,7.90
2015,05,30,06,04,7.90
2015,05,30,06,05,7.90
2015,05,30,06,06,7.90
2015,05,30,06,07,7.90
2015,05,30,06,08,7.90
2015,05,30,06,09,7.90
2015,05,30,06,10,7.90
2015,05,30,06,11,7.90
2015,05,30,06,12,7.90
2015,05,30,06,13,7.90
2015,05,30,06,14,7.90
2015,05,30,06,15,7.90
2015,05,30,06,16,7.90
2015,05,30,06,17,7.90
2015,05,30,06,18,7.90
2015,05,30,06,19,7.90
2015,05,30,06,20,7.90
2015,05,30,06,21,7.90
2015,05,30,06,22,7.90
2015,05,30,06,23,7.90
2015,05,30,06,24,7.90
2015,05,30,06,25,7.90
2015,05,30,06,26,7.90
2015,05,30,06,27,7.90
2015,05,30,06,28,7.90
2015,05,30,06,29,7.90
2015,05,30,06,30,7.90
2015,05,30,06,31,7.80
2015,05,30,06,32,7.80
2015,05,30,06,33,7.90
2015,05,30,06,34,7.90
2015,05,30,06,35,7.90
2015,05,30,06,36,7.90
2015,05,30,06,37,7.80
2015,05,30,06,38,7.90
2015,05,30,06,39,7.90
2015,05,30,06,40,7.90
2015,05,30,06,41,7.90
2015,05,30,06,42,7.90
2015,05,30,06,43,7.90
2015,05,30,06,44,7.90
2015,05,30,06,45,7.90
2015,05,30,06,46,7.90
2015,05,30,06,47,7.90
2015,05,30,06,48,7.90
2015,05,30,06,49,8.00
2015,05,30,06,50,8.00
2015,05,30,06,51,8.00
2015,05,30,06,52,8.10
2015,05,30,06,53,8.10
2015,05,30,06,54,8.20
2015,05,30,06,55,8.20
2015,05,30,06,56,8.30
2015,05,30,06,57,8.30
2015,05,30,06,58,8.40
2015,05,30,06,59,8.50
2015,05,30,07,00,8.50
2015,05,30,07,01,8.60
2015,05,30,07,02,8.70
2015,05,30,07,03,8.80
2015,05,30,07,04,8.90
2015,05,30,07,05,8.90
2015,05,30,07,06,9.00
2015,05,30,07,07,9.10
2015,05,30,07,08,9.20
2015,05,30,07,09,9.30
2015,05,30,07,10,9.30
2015,05,30,07,11,9.40
2015,05,30,07,12,9.50
2015,05,30,07,13,9.50
2015,05,30,07,14,9.60
2015,05,30,07,15,9.60
2015,05,30,07,16,9.70
2015,05,30,07,17,9.70
2015,05,30,07,18,9.80
2015,05,30,07,19,9.80
2015,05,30,07,20,9.80
2015,05,30,07,21,9.90
2015,05,30,07,22,10.00
2015,05,30,07,23,10.00
2015,05,30,07,24,10.00
2015,05,30,07,25,10.00
2015,05,30,07,26,10.10
2015,05,30,07,27,10.10
2015,05,30,07,28,10.10
2015,05,30,07,29,10.10
2015,05,30,07,30,10.20
2015,05,30,07,31,10.20
2015,05,30,07,32,10.20
2015,05,30,07,33,10.20
2015,05,30,07,34,10.30
2015,05,30,07,35,10.30
2015,05,30,07,36,10.30
2015,05,30,07,37,10.30
2015,05,30,07,38,10.30
2015,05,30,07,39,10.30
2015,05,30,07,40,10.30
2015,05,30,07,41,10.30
2015,05,30,07,42,10.40
2015,05,30,07,43,10.40
2015,05,30,07,44,10.40
2015,05,30,07,45,10.40
2015,05,30,07,46,10.50
2015,05,30,07,47,10.50
2015,05,30,07,48,10.60
2015,05,30,07,49,10.60
2015,05,30,07,50,10.70
2015,05,30,07,51,10.70
2015,05,30,07,52,10.70
2015,05,30,07,53,10.80
2015,05,30,07,54,10.80
2015,05,30,07,55,10.80
2015,05,30,07,56,10.80
2015,05,30,07,57,10.90
2015,05,30,07,58,10.90
2015,05,30,07,59,11.00
2015,05,30,08,00,11.00
2015,05,30,08,01,11.00
2015,05,30,08,02,11.10
2015,05,30,08,03,11.10
2015,05,30,08,04,11.10
2015,05,30,08,05,11.20
2015,05,30,08,06,11.20
2015,05,30,08,07,11.30
2015,05,30,08,08,11.30
2015,05,30,08,09,11.30
2015,05,30,08,10,11.40
2015,05,30,08,11,11.50
2015,05,30,08,12,11.60
2015,05,30,08,13,11.70
2015,05,30,08,14,11.80
2015,05,30,08,15,11.90
2015,05,30,08,16,12.00
2015,05,30,08,17,12.10
2015,05,30,08,18,12.20
2015,05,30,08,19,12.20
2015,05,30,08,20,12.30
2015,05,30,08,21,12.40
2015,05,30,08,22,12.40
2015,05,30,08,23,12.50
2015,05,30,08,24,12.60
2015,05,30,08,25,12.60
2015,05,30,08,26,12.70
2015,05,30,08,27,12.70
2015,05,30,08,28,12.80
2015,05,30,08,29,12.80
2015,05,30,08,30,12.80
2015,05,30,08,31,12.80
2015,05,30,08,32,12.80
2015,05,30,08,33,12.80
2015,05,30,08,34,12.80
2015,05,30,08,35,12.70
2015,05,30,08,36,12.70
2015,05,30,08,37,12.60
2015,05,30,08,38,12.50
2015,05,30,08,39,12.40
2015,05,30,08,40,12.40
2015,05,30,08,41,12.40
2015,05,30,08,42,12.40
2015,05,30,08,43,12.40
2015,05,30,08,44,12.40
2015,05,30,08,45,12.50
2015,05,30,08,46,12.60
2015,05,30,08,47,12.60
2015,05,30,08,48,12.70
2015,05,30,08,49,12.80
2015,05,30,08,50,12.80
2015,05,30,08,51,12.80
2015,05,30,08,52,12.90
2015,05,30,08,53,12.90
2015,05,30,08,54,12.90
2015,05,30,08,55,13.00
2015,05,30,08,56,13.00
2015,05,30,08,57,13.10
2015,05,30,08,58,13.20
2015,05,30,08,59,13.20
2015,05,30,09,00,13.30
2015,05,30,09,01,13.30
2015,05,30,09,02,13.40
2015,05,30,09,03,13.50
2015,05,30,09,04,13.50
2015,05,30,09,05,13.60
2015,05,30,09,06,13.70
2015,05,30,09,07,13.70
2015,05,30,09,08,13.80
2015,05,30,09,09,13.90
2015,05,30,09,10,14.00
2015,05,30,09,11,14.10
2015,05,30,09,12,14.20
2015,05,30,09,13,14.30
2015,05,30,09,14,14.40
2015,05,30,09,15,14.50
2015,05,30,09,16,14.50
2015,05,30,09,17,14.60
2015,05,30,09,18,14.60
2015,05,30,09,19,14.70
2015,05,30,09,20,14.70
2015,05,30,09,21,14.80
2015,05,30,09,22,14.80
2015,05,30,09,23,14.80
2015,05,30,09,24,14.90
2015,05,30,09,25,14.90
2015,05,30,09,26,15.00
2015,05,30,09,27,15.10
2015,05,30,09,28,15.00
2015,05,30,09,29,15.00
2015,05,30,09,30,14.90
2015,05,30,09,31,14.90
2015,05,30,09,32,14.80
2015,05,30,09,33,14.80
2015,05,30,09,34,14.80
2015,05,30,09,35,14.80
2015,05,30,09,36,14.80
2015,05,30,09,37,14.70
2015,05,30,09,38,14.60
2015,05,30,09,39,14.60
2015,05,30,09,40,14.60
2015,05,30,09,41,14.60
2015,05,30,09,42,14.60
2015,05,30,09,43,14.60
2015,05,30,09,44,14.60
2015,05,30,09,45,14.70
2015,05,30,09,46,14.70
2015,05,30,09,47,14.70
2015,05,30,09,48,14.80
2015,05,30,09,49,14.80
2015,05,30,09,50,14.90
2015,05,30,09,51,14.90
2015,05,30,09,52,15.00
2015,05,30,09,53,15.00
2015,05,30,09,54,15.00
2015,05,30,09,55,15.00
2015,05,30,09,56,15.10
2015,05,30,09,57,15.10
2015,05,30,09,58,15.10
2015,05,30,09,59,15.20
2015,05,30,10,00,15.20
2015,05,30,10,01,15.30
2015,05,30,10,02,15.50
2015,05,30,10,03,15.60
2015,05,30,10,04,15.70
2015,05,30,10,05,15.80
2015,05,30,10,06,16.00
2015,05,30,10,07,16.10
2015,05,30,10,08,16.20
2015,05,30,10,09,16.20
2015,05,30,10,10,16.20
2015,05,30,10,11,16.30
2015,05,30,10,12,16.40
2015,05,30,10,13,16.40
2015,05,30,10,14,16.50
2015,05,30,10,15,16.60
2015,05,30,10,16,16.70
2015,05,30,10,17,16.70
2015,05,30,10,18,16.80
2015,05,30,10,19,16.90
2015,05,30,10,20,16.90
2015,05,30,10,21,17.00
2015,05,30,10,22,17.00
2015,05,30,10,23,17.10
2015,05,30,10,24,17.20
2015,05,30,10,25,17.20
2015,05,30,10,26,17.30
2015,05,30,10,27,17.30
2015,05,30,10,28,17.30
2015,05,30,10,29,17.30
2015,05,30,10,30,17.30
2015,05,30,10,31,17.30
2015,05,30,10,32,17.30
2015,05,30,10,33,17.30
2015,05,30,10,34,17.20
2015,05,30,10,35,17.20
2015,05,30,10,36,17.20
2015,05,30,10,37,17.30
2015,05,30,10,38,17.30
2015,05,30,10,39,17.30
2015,05,30,10,40,17.40
2015,05,30,10,41,17.50
2015,05,30,10,42,17.60
2015,05,30,10,43,17.60
2015,05,30,10,44,17.70
2015,05,30,10,45,17.80
2015,05,30,10,46,17.90
2015,05,30,10,47,18.10
2015,05,30,10,48,18.20
2015,05,30,10,49,18.30
2015,05,30,10,50,18.30
2015,05,30,10,51,18.30
2015,05,30,10,52,18.40
2015,05,30,10,53,18.40
2015,05,30,10,54,18.30
2015,05,30,10,55,18.30
2015,05,30,10,56,18.30
2015,05,30,10,57,18.30
2015,05,30,10,58,18.20
2015,05,30,10,59,18.20
2015,05,30,11,00,18.20
2015,05,30,11,01,18.30
2015,05,30,11,02,18.40
2015,05,30,11,03,18.50
2015,05,30,11,04,18.60
2015,05,30,11,05,18.60
2015,05,30,11,06,18.70
2015,05,30,11,07,18.70
2015,05,30,11,08,18.80
2015,05,30,11,09,18.80
2015,05,30,11,10,18.80
2015,05,30,11,11,18.80
2015,05,30,11,12,18.90
2015,05,30,11,13,18.90
2015,05,30,11,14,19.00
2015,05,30,11,15,19.10
2015,05,30,11,16,19.20
2015,05,30,11,17,19.20
2015,05,30,11,18,19.20
2015,05,30,11,19,19.20
2015,05,30,11,20,19.20
2015,05,30,11,21,19.20
2015,05,30,11,22,19.30
2015,05,30,11,23,19.30
2015,05,30,11,24,19.30
2015,05,30,11,25,19.30
2015,05,30,11,26,19.40
2015,05,30,11,27,19.50
2015,05,30,11,28,19.50
2015,05,30,11,29,19.60
2015,05,30,11,30,19.70
2015,05,30,11,31,19.80
2015,05,30,11,32,19.90
2015,05,30,11,33,20.00
2015,05,30,11,34,20.00
2015,05,30,11,35,20.00
2015,05,30,11,36,20.00
2015,05,30,11,37,19.90
2015,05,30,11,38,19.80
2015,05,30,11,39,19.80
2015,05,30,11,40,19.90
2015,05,30,11,41,19.90
2015,05,30,11,42,20.00
2015,05,30,11,43,20.10
2015,05,30,11,44,20.30
2015,05,30,11,45,20.30
2015,05,30,11,46,20.30
2015,05,30,11,47,20.30
2015,05,30,11,48,20.30
2015,05,30,11,49,20.40
2015,05,30,11,50,20.50
2015,05,30,11,51,20.60
2015,05,30,11,52,20.60
2015,05,30,11,53,20.60
2015,05,30,11,54,20.70
2015,05,30,11,55,20.70
2015,05,30,11,56,20.80
2015,05,30,11,57,20.80
2015,05,30,11,58,20.80
2015,05,30,11,59,20.90
2015,05,30,12,00,20.90
2015,05,30,12,01,20.90
2015,05,30,12,02,21.00
2015,05,30,12,03,21.00
2015,05,30,12,04,21.10
2015,05,30,12,05,21.10
2015,05,30,12,06,21.20
2015,05,30,12,07,21.20
2015,05,30,12,08,21.20
2015,05,30,12,09,21.20
2015,05,30,12,10,21.20
2015,05,30,12,11,21.20
2015,05,30,12,12,21.10
2015,05,30,12,13,21.10
2015,05,30,12,14,21.10
2015,05,30,12,15,21.10
2015,05,30,12,16,21.20
2015,05,30,12,17,21.20
2015,05,30,12,18,21.30
2015,05,30,12,19,21.30
2015,05,30,12,20,21.40
2015,05,30,12,21,21.50
2015,05,30,12,22,21.60
2015,05,30,12,23,21.70
2015,05,30,12,24,21.70
2015,05,30,12,25,21.70
2015,05,30,12,26,21.80
2015,05,30,12,27,21.90
2015,05,30,12,28,21.90
2015,05,30,12,29,22.00
2015,05,30,12,30,22.00
2015,05,30,12,31,21.90
2015,05,30,12,32,22.00
2015,05,30,12,33,22.10
2015,05,30,12,34,22.00
2015,05,30,12,35,22.00
2015,05,30,12,36,22.00
2015,05,30,12,37,22.00
2015,05,30,12,38,22.00
2015,05,30,12,39,21.90
2015,05,30,12,40,21.90
2015,05,30,12,41,21.90
2015,05,30,12,42,21.80
2015,05,30,12,43,21.70
2015,05,30,12,44,21.60
2015,05,30,12,45,21.60
2015,05,30,12,46,21.50
2015,05,30,12,47,21.40
2015,05,30,12,48,21.40
2015,05,30,12,49,21.40
2015,05,30,12,50,21.40
2015,05,30,12,51,21.40
2015,05,30,12,52,21.40
2015,05,30,12,53,21.50
2015,05,30,12,54,21.50
2015,05,30,12,55,21.40
2015,05,30,12,56,21.40
2015,05,30,12,57,21.30
2015,05,30,12,58,21.30
2015,05,30,12,59,21.30
2015,05,30,13,00,21.30
2015,05,30,13,01,21.30
2015,05,30,13,02,21.40
2015,05,30,13,03,21.40
2015,05,30,13,04,21.50
2015,05,30,13,05,21.50
2015,05,30,13,06,21.60
2015,05,30,13,07,21.60
2015,05,30,13,08,21.70
2015,05,30,13,09,21.80
2015,05,30,13,10,21.80
2015,05,30,13,11,21.90
2015,05,30,13,12,21.90
2015,05,30,13,13,21.80
2015,05,30,13,14,21.80
2015,05,30,13,15,21.70
2015,05,30,13,16,21.60
2015,05,30,13,17,21.60
2015,05,30,13,18,21.60
2015,05,30,13,19,21.60
2015,05,30,13,20,21.60
2015,05,30,13,21,21.60
2015,05,30,13,22,21.50
2015,05,30,13,23,21.50
2015,05,30,13,24,21.50
2015,05,30,13,25,21.50
2015,05,30,13,26,21.50
2015,05,30,13,27,21.50
2015,05,30,13,28,21.60
2015,05,30,13,29,21.70
2015,05,30,13,30,21.80
2015,05,30,13,31,21.80
2015,05,30,13,32,21.80
2015,05,30,13,33,21.80
2015,05,30,13,34,21.80
2015,05,30,13,35,21.80
2015,05,30,13,36,21.80
2015,05,30,13,37,21.80
2015,05,30,13,38,21.80
2015,05,30,13,39,21.80
2015,05,30,13,40,21.90
2015,05,30,13,41,21.90
2015,05,30,13,42,21.90
2015,05,30,13,43,21.80
2015,05,30,13,44,21.80
2015,05,30,13,45,21.80
2015,05,30,13,46,21.80
2015,05,30,13,47,21.70
2015,05,30,13,48,21.80
2015,05,30,13,49,21.80
2015,05,30,13,50,21.80
2015,05,30,13,51,21.90
2015,05,30,13,52,21.90
2015,05,30,13,53,21.90
2015,05,30,13,54,22.00
2015,05,30,13,55,22.00
2015,05,30,13,56,22.00
2015,05,30,13,57,21.90
2015,05,30,13,58,21.90
2015,05,30,13,59,22.00
2015,05,30,14,00,22.00
2015,05,30,14,01,22.10
2015,05,30,14,02,22.20
2015,05,30,14,03,22.20
2015,05,30,14,04,22.30
2015,05,30,14,05,22.30
2015,05,30,14,06,22.50
2015,05,30,14,07,22.60
2015,05,30,14,08,22.60
2015,05,30,14,09,22.50
2015,05,30,14,10,22.40
2015,05,30,14,11,22.40
2015,05,30,14,12,22.30
2015,05,30,14,13,22.30
2015,05,30,14,14,22.30
2015,05,30,14,15,22.40
2015,05,30,14,16,22.40
2015,05,30,14,17,22.40
2015,05,30,14,18,22.30
2015,05,30,14,19,22.30
2015,05,30,14,20,22.30
2015,05,30,14,21,22.30
2015,05,30,14,22,22.30
2015,05,30,14,23,22.30
2015,05,30,14,24,22.30
2015,05,30,14,25,22.30
2015,05,30,14,26,22.30
2015,05,30,14,27,22.30
2015,05,30,14,28,22.30
2015,05,30,14,29,22.30
2015,05,30,14,30,22.20
2015,05,30,14,31,22.10
2015,05,30,14,32,22.00
2015,05,30,14,33,22.00
2015,05,30,14,34,22.10
2015,05,30,14,35,22.10
2015,05,30,14,36,22.10
2015,05,30,14,37,22.10
2015,05,30,14,38,22.10
2015,05,30,14,39,22.10
2015,05,30,14,40,22.10
2015,05,30,14,41,22.10
2015,05,30,14,42,22.10
2015,05,30,14,43,22.20
2015,05,30,14,44,22.20
2015,05,30,14,45,22.30
2015,05,30,14,46,22.40
2015,05,30,14,47,22.40
2015,05,30,14,48,22.50
2015,05,30,14,49,22.40
2015,05,30,14,50,22.40
2015,05,30,14,51,22.30
2015,05,30,14,52,22.30
2015,05,30,14,53,22.30
2015,05,30,14,54,22.30
2015,05,30,14,55,22.40
2015,05,30,14,56,22.40
2015,05,30,14,57,22.50
2015,05,30,14,58,22.50
2015,05,30,14,59,22.60
2015,05,30,15,00,22.60
2015,05,30,15,01,22.60
2015,05,30,15,02,22.60
2015,05,30,15,03,22.60
2015,05,30,15,04,22.50
2015,05,30,15,05,22.50
2015,05,30,15,06,22.60
2015,05,30,15,07,22.50
2015,05,30,15,08,22.40
2015,05,30,15,09,22.40
2015,05,30,15,10,22.30
2015,05,30,15,11,22.20
2015,05,30,15,12,22.20
2015,05,30,15,13,22.20
2015,05,30,15,14,22.30
2015,05,30,15,15,22.30
2015,05,30,15,16,22.20
2015,05,30,15,17,22.20
2015,05,30,15,18,22.20
2015,05,30,15,19,22.20
2015,05,30,15,20,22.10
2015,05,30,15,21,22.10
2015,05,30,15,22,22.00
2015,05,30,15,23,21.80
2015,05,30,15,24,21.70
2015,05,30,15,25,21.70
2015,05,30,15,26,21.70
2015,05,30,15,27,21.80
2015,05,30,15,28,21.80
2015,05,30,15,29,21.80
2015,05,30,15,30,21.80
2015,05,30,15,31,21.80
2015,05,30,15,32,21.90
2015,05,30,15,33,22.00
2015,05,30,15,34,22.00
2015,05,30,15,35,22.00
2015,05,30,15,36,22.00
2015,05,30,15,37,21.90
2015,05,30,15,38,21.90
2015,05,30,15,39,21.80
2015,05,30,15,40,21.90
2015,05,30,15,41,21.90
2015,05,30,15,42,22.00
2015,05,30,15,43,22.00
2015,05,30,15,44,21.90
2015,05,30,15,45,21.90
2015,05,30,15,46,21.90
2015,05,30,15,47,21.90
2015,05,30,15,48,21.90
2015,05,30,15,49,21.80
2015,05,30,15,50,21.70
2015,05,30,15,51,21.70
2015,05,30,15,52,21.70
2015,05,30,15,53,21.70
2015,05,30,15,54,21.60
2015,05,30,15,55,21.60
2015,05,30,15,56,21.60
2015,05,30,15,57,21.70
2015,05,30,15,58,21.70
2015,05,30,15,59,21.70
2015,05,30,16,00,21.70
2015,05,30,16,01,21.80
2015,05,30,16,02,21.90
2015,05,30,16,03,21.90
2015,05,30,16,04,21.90
2015,05,30,16,05,21.80
2015,05,30,16,06,21.80
2015,05,30,16,07,21.80
2015,05,30,16,08,21.80
2015,05,30,16,09,21.90
2015,05,30,16,10,22.00
2015,05,30,16,11,22.00
2015,05,30,16,12,22.00
2015,05,30,16,13,21.90
2015,05,30,16,14,21.80
2015,05,30,16,15,21.70
2015,05,30,16,16,21.70
2015,05,30,16,17,21.70
2015,05,30,16,18,21.70
2015,05,30,16,19,21.80
2015,05,30,16,20,21.80
2015,05,30,16,21,21.90
2015,05,30,16,22,21.90
2015,05,30,16,23,21.90
2015,05,30,16,24,21.80
2015,05,30,16,25,21.80
2015,05,30,16,26,21.80
2015,05,30,16,27,21.70
2015,05,30,16,28,21.70
2015,05,30,16,29,21.70
2015,05,30,16,30,21.70
2015,05,30,16,31,21.70
2015,05,30,16,32,21.80
2015,05,30,16,33,21.90
2015,05,30,16,34,21.90
2015,05,30,16,35,21.90
2015,05,30,16,36,21.90
2015,05,30,16,37,21.90
2015,05,30,16,38,21.90
2015,05,30,16,39,21.90
2015,05,30,16,40,21.90
2015,05,30,16,41,21.80
2015,05,30,16,42,21.80
2015,05,30,16,43,21.80
2015,05,30,16,44,21.70
2015,05,30,16,45,21.70
2015,05,30,16,46,21.70
2015,05,30,16,47,21.70
2015,05,30,16,48,21.60
2015,05,30,16,49,21.60
2015,05,30,16,50,21.60
2015,05,30,16,51,21.50
2015,05,30,16,52,21.50
2015,05,30,16,53,21.50
2015,05,30,16,54,21.50
2015,05,30,16,55,21.60
2015,05,30,16,56,21.60
2015,05,30,16,57,21.50
2015,05,30,16,58,21.50
2015,05,30,16,59,21.60
2015,05,30,17,00,21.60
2015,05,30,17,01,21.60
2015,05,30,17,02,21.60
2015,05,30,17,03,21.60
2015,05,30,17,04,21.60
2015,05,30,17,05,21.50
2015,05,30,17,06,21.40
2015,05,30,17,07,21.40
2015,05,30,17,08,21.40
2015,05,30,17,09,21.50
2015,05,30,17,10,21.50
2015,05,30,17,11,21.50
2015,05,30,17,12,21.60
2015,05,30,17,13,21.70
2015,05,30,17,14,21.70
2015,05,30,17,15,21.70
2015,05,30,17,16,21.70
2015,05,30,17,17,21.60
2015,05,30,17,18,21.60
2015,05,30,17,19,21.60
2015,05,30,17,20,21.50
2015,05,30,17,21,21.40
2015,05,30,17,22,21.40
2015,05,30,17,23,21.50
2015,05,30,17,24,21.50
2015,05,30,17,25,21.40
2015,05,30,17,26,21.40
2015,05,30,17,27,21.40
2015,05,30,17,28,21.40
2015,05,30,17,29,21.50
2015,05,30,17,30,21.50
2015,05,30,17,31,21.50
2015,05,30,17,32,21.50